Location: Bayshore Village Mobile Home Park
(26.6945°N, 81.8642°W)
Time: 09:39:30
(UTC+00:00)

Cosmos 407 Rocket - Visible Passes

Search period start: 26 October 2021 00:00
Search period end: 05 November 2021 00:00
Orbit: 743 x 786 km, 74.0° (Epoch: 25 October)

Date Brightness Start Highest point End Pass type
(mag) Time Alt. Az. Time Alt. Az. Time Alt. Az.
26 Oct 5.4 00:23:09 10° N 00:24:30 16° NNE 00:24:30 16° NNE visible
26 Oct 5.2 23:46:27 10° NNE 23:48:13 14° NE 23:48:13 14° NE visible
27 Oct 5.6 01:26:37 10° NNW 01:28:29 21° NW 01:28:29 21° NW visible
28 Oct 3.9 00:48:25 10° NNW 00:52:36 56° NNW 00:52:36 56° NNW visible
29 Oct 3.7 00:10:37 10° N 00:15:46 48° ENE 00:17:26 36° ESE visible
29 Oct 6.3 01:54:43 10° WNW 01:57:14 13° W 01:57:50 13° WSW visible
29 Oct 4.5 23:33:17 10° NNE 23:37:40 26° ENE 23:42:02 10° SE visible
30 Oct 5.5 01:15:05 10° NW 01:19:29 26° W 01:23:52 10° SSW visible
31 Oct 4.3 00:36:29 10° NNW 00:41:38 51° WSW 00:46:47 10° S visible
31 Oct 3.4 23:58:22 10° NNW 00:03:43 82° ENE 00:09:03 10° SSE visible
01 Nov 3.9 23:20:38 10° N 23:25:42 42° ENE 23:30:43 10° SE visible
02 Nov 6.4 01:04:10 10° WNW 01:07:14 15° W 01:10:16 10° SW visible
03 Nov 5.4 00:24:51 10° NW 00:29:28 30° W 00:34:03 10° SSW visible
03 Nov 4.2 23:46:21 10° NNW 23:51:36 59° WSW 23:56:48 10° S visible
04 Nov 3.5 23:08:20 10° N 23:13:40 72° ENE 23:18:57 10° SSE visible
